Regional Weather Roundup
Issued by NWS Jackson, KY

Home | Current Version | Previous Version | Text Only | Print | Product List | Glossary Off
Versions: 1 2 3 4 5 6 7 8 9 10 11 12 13 14 15 16 17 18 19 20 21 22 23 24 25 26 27 28 29 30 31 32 33 34 35 36 37 38 39 40 41 42 43 44 45 46 47 48 49 50

000
ASUS43 KJKL 300605
RWRJKL

EAST KENTUCKY HOURLY WEATHER ROUNDUP
NATIONAL WEATHER SERVICE JACKSON KY
200 AM EDT THU OCT 30 2014

NOTE: "FAIR" INDICATES FEW OR NO CLOUDS BELOW 12,000 FEET WITH
NO SIGNIFICANT WEATHER AND/OR OBSTRUCTIONS TO VISIBILITY.

* THESE REPORTS ARE NOT UNDER NWS QUALITY CONTROL AND MAY NOT
  REPORT WEATHER SUCH AS PRECIPITATION AND FOG.

KYZ079-080-083-085-087-088-110-112-115-119-120-300700
...EASTERN KENTUCKY...

CITY           SKY/WX    TMP DP  RH WIND       PRES   REMARKS
JACKSON        CLEAR     44  35  70 CALM      30.11R
6HR MIN TEMP:  44; 6HR MAX TEMP:  55;

LONDON         CLEAR     42  36  79 CALM      30.12S
6HR MIN TEMP:  42; 6HR MAX TEMP:  54;

SOMERSET*      CLEAR     41  36  81 CALM      30.14S
MONTICELLO*    CLEAR     37  37 100 CALM      30.15S
6HR MIN TEMP:  37; 6HR MAX TEMP:  47;

WILLIAMSBURG*  CLEAR     37  37 100 CALM      30.12F
MIDDLESBORO*   CLEAR     38  38  99 CALM      30.12S
6HR MIN TEMP:  38; 6HR MAX TEMP:  50;

HARLAN APT*    CLOUDY    39  39 100 CALM      30.11R VSB<1/4
BLACK MTN*       N/A     37  30  75 N3          N/A
PIKEVILLE APT* CLEAR     43  37  81 N6        30.11R
BIG SANDY*     CLEAR     43  36  78 CALM      30.12R
6HR MIN TEMP:  43; 6HR MAX TEMP:  56;

MOREHEAD APT*  CLOUDY    43  34  70 CALM      30.15S
$$

KYZ035-036-041-042-044-050-067-078-099-300700
...CENTRAL KENTUCKY...

CITY           SKY/WX    TMP DP  RH WIND       PRES   REMARKS
MT STERLING*   CLEAR     37  36  93 CALM      30.15S
FLEMING/MASON* PTCLDY    39  35  83 CALM      30.14S
DANVILLE*      CLEAR     37  34  87 N3        30.15S
RICHMOND*      CLEAR     43  36  75 N3        30.13S
LEXINGTON      CLEAR     43  35  73 N5        30.14R
6HR MIN TEMP:  43; 6HR MAX TEMP:  53;

FRANKFORT      CLEAR     38  34  85 CALM      30.13F
6HR MIN TEMP:  38; 6HR MAX TEMP:  53;

$$

KYZ091>093-OHZ055-061-077-WVZ005-015-034-035-042-300700
...SOUTHERN OHIO/WEST VIRGINIA...

CITY           SKY/WX    TMP DP  RH WIND       PRES   REMARKS
COVINGTON      CLOUDY    44  34  67 NW7       30.13S
COLUMBUS       CLOUDY    45  34  65 NW9       30.10S
DAYTON         CLOUDY    44  36  73 NW6       30.13F
WILMINGTON     CLOUDY    44  34  67 N7        30.11F
HUNTINGTON     CLEAR     42  35  76 CALM      30.12R
CHARLESTON     CLEAR     44  37  76 CALM      30.11S
PINEVILLE*     CLEAR     39  39 100 MISG      30.13S
BECKLEY        CLEAR     41  34  76 N5        30.07S
BLUEFIELD      CLEAR     42  34  73 W6        30.06S
$$

VAZ002-007-008-TNZ017-027-036-066-071-300700
...SOUTHWEST VIRGINIA/EAST TENNESSEE...

CITY           SKY/WX    TMP DP  RH WIND       PRES   REMARKS
WISE*          CLEAR     45  32  61 CALM      30.09S
JONESVILLE*    CLEAR     36  36 100 CALM      30.12S
ABINGDON*      PTCLDY    40  40  99 CALM      30.08F FOG
BRISTOL        FOG       39  39 100 CALM      30.09S VSB 1/4
KNOXVILLE      PTCLDY    44  42  93 CALM      30.09F
OAK RIDGE      FOG       44  43  96 CALM      30.12S VSB 1/4
CROSSVILLE     CLEAR     46  35  65 N6        30.11F
NASHVILLE      CLEAR     48  38  68 N5        30.15R
$$

...KEY TO REMARKS...
VSB - VISIBILITY IN MILES
WCI - WIND CHILL INDEX
HX  - HEAT INDEX

$$



USA.gov is the U.S. government's official web portal to all federal, state and local government web resources and services.